SWA2584 KRSW-KMCO

Flight info

Callsign SWA2584
Flight time 0h 31m
Altitude 17000
Route CSHEL JOKRS4
Aircraft B737/M-VGDW/C

Departure

Time 2026-04-23 03:02
Airport Southwest Florida International Airport (KRSW)

Arrival

Time 2026-04-23 03:33
Airport Orlando International Airport (KMCO)
Time Latitude Longitude Altitude Speed Heading
2026-04-23 02:56 26.52818 -81.75188 39 ft 0 kts 323°
2026-04-23 02:57 26.52813 -81.75184 39 ft 2 kts 323°
2026-04-23 02:58 26.52800 -81.75173 36 ft 2 kts 326°
2026-04-23 02:58 26.52786 -81.75163 36 ft 2 kts 329°
2026-04-23 02:58 26.52771 -81.75154 38 ft 2 kts 336°
2026-04-23 02:58 26.52756 -81.75149 38 ft 2 kts
2026-04-23 02:59 26.52743 -81.75157 38 ft 1 kts 62°
2026-04-23 02:59 26.52741 -81.75161 39 ft 0 kts 66°
2026-04-23 02:59 26.52782 -81.75094 38 ft 22 kts 56°
2026-04-23 02:59 26.52856 -81.74983 37 ft 16 kts 53°
2026-04-23 03:00 26.52929 -81.74894 36 ft 15 kts 19°
2026-04-23 03:00 26.53021 -81.74940 39 ft 15 kts 324°
2026-04-23 03:00 26.53128 -81.75061 39 ft 26 kts 308°
2026-04-23 03:00 26.53203 -81.75292 40 ft 35 kts 279°
2026-04-23 03:01 26.53240 -81.75535 38 ft 29 kts 276°
2026-04-23 03:01 26.53170 -81.75731 38 ft 27 kts 250°
2026-04-23 03:01 26.53265 -81.75855 38 ft 17 kts 23°
2026-04-23 03:01 26.53394 -81.75760 36 ft 27 kts 25°
2026-04-23 03:02 26.53578 -81.75579 34 ft 71 kts 54°
2026-04-23 03:02 26.54071 -81.74824 66 ft 162 kts 56°
2026-04-23 03:02 26.54798 -81.73740 961 ft 187 kts 55°
2026-04-23 03:02 26.55847 -81.72828 1989 ft 205 kts 25°
2026-04-23 03:03 26.57372 -81.72633 2375 ft 245 kts
2026-04-23 03:03 26.59171 -81.72756 3004 ft 266 kts 359°
2026-04-23 03:03 26.61018 -81.72913 4244 ft 266 kts 359°
2026-04-23 03:03 26.62881 -81.72996 5383 ft 270 kts 360°
2026-04-23 03:04 26.64767 -81.73057 6560 ft 271 kts 358°
2026-04-23 03:04 26.66660 -81.73118 7636 ft 274 kts 357°
2026-04-23 03:04 26.68575 -81.73183 8690 ft 277 kts 356°
2026-04-23 03:04 26.70524 -81.73253 9678 ft 283 kts 356°
2026-04-23 03:05 26.72477 -81.73326 10635 ft 287 kts 356°
2026-04-23 03:05 26.74485 -81.73403 11547 ft 291 kts 355°
2026-04-23 03:05 26.76544 -81.73483 12244 ft 305 kts 355°
2026-04-23 03:05 26.78762 -81.73574 12526 ft 333 kts 355°
2026-04-23 03:06 26.80862 -81.73659 12766 ft 354 kts 355°
2026-04-23 03:06 26.83314 -81.73756 13454 ft 363 kts 355°
2026-04-23 03:06 26.85853 -81.73854 14290 ft 366 kts 355°
2026-04-23 03:06 26.88412 -81.73953 15082 ft 370 kts 355°
2026-04-23 03:07 26.91005 -81.74054 15643 ft 379 kts 355°
2026-04-23 03:07 26.93705 -81.74163 15751 ft 397 kts 355°
2026-04-23 03:07 26.96479 -81.74274 15859 ft 412 kts 355°
2026-04-23 03:07 26.99383 -81.74389 16010 ft 423 kts 355°
2026-04-23 03:08 27.01977 -81.74491 16280 ft 428 kts 355°
2026-04-23 03:08 27.04972 -81.74483 16688 ft 432 kts 359°
2026-04-23 03:08 27.07983 -81.74284 16939 ft 433 kts
2026-04-23 03:08 27.10986 -81.74024 16939 ft 434 kts
2026-04-23 03:09 27.14002 -81.73768 16950 ft 435 kts
2026-04-23 03:09 27.17014 -81.73536 16794 ft 434 kts
2026-04-23 03:09 27.20025 -81.73329 16537 ft 433 kts
2026-04-23 03:09 27.22985 -81.73135 16296 ft 431 kts
2026-04-23 03:10 27.25966 -81.72947 16050 ft 429 kts 359°
2026-04-23 03:10 27.28906 -81.73246 15748 ft 421 kts 342°
2026-04-23 03:10 27.31681 -81.74236 15567 ft 418 kts 340°
2026-04-23 03:10 27.34458 -81.75228 15321 ft 418 kts 340°
2026-04-23 03:11 27.37229 -81.76189 15086 ft 416 kts 341°
2026-04-23 03:11 27.40007 -81.77134 14991 ft 416 kts 341°
2026-04-23 03:11 27.42745 -81.78057 14963 ft 416 kts 341°
2026-04-23 03:11 27.45513 -81.78987 14958 ft 415 kts 341°
2026-04-23 03:12 27.48282 -81.79916 14964 ft 415 kts 341°
2026-04-23 03:12 27.51045 -81.80845 14958 ft 415 kts 341°
2026-04-23 03:12 27.53808 -81.81775 14957 ft 415 kts 341°
2026-04-23 03:12 27.56577 -81.82708 14961 ft 415 kts 341°
2026-04-23 03:13 27.59343 -81.83641 14963 ft 415 kts 341°
2026-04-23 03:13 27.62107 -81.84573 14962 ft 415 kts 341°
2026-04-23 03:13 27.64888 -81.85195 14939 ft 410 kts 355°
2026-04-23 03:13 27.67660 -81.84891 14953 ft 396 kts 12°
2026-04-23 03:14 27.68550 -81.84591 14970 ft 395 kts 16°
2026-04-23 03:15 27.69691 -81.84130 14983 ft 396 kts 18°
2026-04-23 03:15 27.72279 -81.83020 14979 ft 400 kts 19°
2026-04-23 03:15 27.74886 -81.81877 14983 ft 402 kts 18°
2026-04-23 03:15 27.77458 -81.80757 14980 ft 401 kts 18°
2026-04-23 03:16 27.80068 -81.79637 14977 ft 401 kts 18°
2026-04-23 03:16 27.82678 -81.78530 14959 ft 401 kts 18°
2026-04-23 03:16 27.87910 -81.76325 13835 ft 400 kts 18°
2026-04-23 03:17 27.90507 -81.75231 13141 ft 395 kts 18°
2026-04-23 03:17 27.93087 -81.74353 12823 ft 377 kts 10°
2026-04-23 03:17 27.95605 -81.73845 12623 ft 361 kts
2026-04-23 03:17 27.98036 -81.73409 12439 ft 357 kts
2026-04-23 03:18 28.00188 -81.72997 12291 ft 358 kts
2026-04-23 03:18 28.02633 -81.72451 12091 ft 359 kts 14°
2026-04-23 03:18 28.04871 -81.71189 11899 ft 362 kts 33°
2026-04-23 03:18 28.06888 -81.69485 11731 ft 362 kts 36°
2026-04-23 03:19 28.08874 -81.67736 11537 ft 361 kts 36°
2026-04-23 03:19 28.10186 -81.66576 11414 ft 361 kts 36°
2026-04-23 03:19 28.12610 -81.64448 11177 ft 360 kts 36°
2026-04-23 03:19 28.14567 -81.62744 10980 ft 359 kts 36°
2026-04-23 03:20 28.16520 -81.61052 10781 ft 345 kts 36°
2026-04-23 03:20 28.18369 -81.59455 10585 ft 323 kts 36°
2026-04-23 03:20 28.20062 -81.57995 10415 ft 305 kts 36°
2026-04-23 03:20 28.21712 -81.56572 10264 ft 294 kts 36°
2026-04-23 03:21 28.23324 -81.55182 10119 ft 288 kts 36°
2026-04-23 03:21 28.24902 -81.53777 9952 ft 290 kts 43°
2026-04-23 03:21 28.26211 -81.52012 9732 ft 295 kts 53°
2026-04-23 03:21 28.27371 -81.50133 9491 ft 294 kts 54°
2026-04-23 03:22 28.28540 -81.48237 9262 ft 292 kts 53°
2026-04-23 03:22 28.29692 -81.46413 9034 ft 289 kts 53°
2026-04-23 03:22 28.30871 -81.44570 8810 ft 287 kts 52°
2026-04-23 03:22 28.32326 -81.43056 8553 ft 285 kts 27°
2026-04-23 03:23 28.34186 -81.42395 8359 ft 281 kts
2026-04-23 03:23 28.36130 -81.42357 8167 ft 280 kts 359°
2026-04-23 03:23 28.38081 -81.42379 8041 ft 280 kts 359°
2026-04-23 03:23 28.40033 -81.42400 8008 ft 280 kts 359°
2026-04-23 03:24 28.41948 -81.42408 8004 ft 278 kts 359°
2026-04-23 03:24 28.43883 -81.42413 8004 ft 278 kts 359°
2026-04-23 03:24 28.45822 -81.42415 7997 ft 278 kts 359°
2026-04-23 03:24 28.47758 -81.42415 7962 ft 278 kts 359°
2026-04-23 03:25 28.49732 -81.42416 7434 ft 287 kts 360°
2026-04-23 03:25 28.51708 -81.42416 6957 ft 281 kts
2026-04-23 03:25 28.53637 -81.42427 6462 ft 274 kts 360°
2026-04-23 03:25 28.55522 -81.42438 5976 ft 267 kts
2026-04-23 03:26 28.57311 -81.42429 5499 ft 255 kts
2026-04-23 03:26 28.59054 -81.42394 4993 ft 247 kts
2026-04-23 03:26 28.60746 -81.42326 4476 ft 240 kts
2026-04-23 03:26 28.62398 -81.42219 3972 ft 235 kts
2026-04-23 03:27 28.64015 -81.42081 3470 ft 232 kts
2026-04-23 03:27 28.65481 -81.41532 3061 ft 217 kts 45°
2026-04-23 03:27 28.66194 -81.40092 3049 ft 210 kts 81°
2026-04-23 03:27 28.66426 -81.38454 3030 ft 209 kts 88°
2026-04-23 03:28 28.66290 -81.37389 2976 ft 206 kts 116°
2026-04-23 03:28 28.64953 -81.35904 3012 ft 207 kts 143°
2026-04-23 03:28 28.63775 -81.34952 2999 ft 208 kts 143°
2026-04-23 03:28 28.62646 -81.34051 2971 ft 192 kts 143°
2026-04-23 03:29 28.61539 -81.33281 2952 ft 181 kts 161°
2026-04-23 03:29 28.60303 -81.33126 3004 ft 179 kts 169°
2026-04-23 03:29 28.59059 -81.32911 2882 ft 183 kts 170°
2026-04-23 03:29 28.58240 -81.32850 2708 ft 186 kts 174°
2026-04-23 03:30 28.56523 -81.32821 2395 ft 183 kts 175°
2026-04-23 03:30 28.55285 -81.32810 2161 ft 179 kts 175°
2026-04-23 03:30 28.54077 -81.32799 1925 ft 168 kts 175°
2026-04-23 03:30 28.52951 -81.32787 1714 ft 156 kts 175°
2026-04-23 03:31 28.51906 -81.32776 1500 ft 144 kts 174°
2026-04-23 03:31 28.50951 -81.32765 1377 ft 135 kts 175°
2026-04-23 03:31 28.50014 -81.32754 1171 ft 132 kts 175°
2026-04-23 03:31 28.49083 -81.32743 969 ft 135 kts 175°
2026-04-23 03:32 28.48460 -81.32736 868 ft 135 kts 176°
2026-04-23 03:32 28.47516 -81.32728 676 ft 136 kts 176°
2026-04-23 03:32 28.46262 -81.32713 428 ft 137 kts 177°
2026-04-23 03:32 28.45307 -81.32704 240 ft 137 kts 177°
2026-04-23 03:33 28.44363 -81.32696 105 ft 133 kts 175°
2026-04-23 03:33 28.43841 -81.32687 100 ft 79 kts 179°
2026-04-23 03:33 28.43306 -81.32681 104 ft 49 kts 178°
2026-04-23 03:33 28.43138 -81.32646 100 ft 29 kts 160°
2026-04-23 03:34 28.43055 -81.32511 100 ft 20 kts 90°
2026-04-23 03:34 28.43059 -81.32346 98 ft 23 kts 89°
2026-04-23 03:34 28.43061 -81.32165 96 ft 23 kts 89°
2026-04-23 03:34 28.43148 -81.32010 97 ft 22 kts 17°
2026-04-23 03:35 28.43267 -81.32000 96 ft 31 kts
2026-04-23 03:35 28.43481 -81.31860 99 ft 26 kts 16°
2026-04-23 03:35 28.43607 -81.31847 100 ft 30 kts
2026-04-23 03:35 28.43808 -81.31844 101 ft 27 kts 358°
2026-04-23 03:36 28.43919 -81.31736 100 ft 26 kts 85°
2026-04-23 03:36 28.43926 -81.31517 99 ft 29 kts 89°
2026-04-23 03:36 28.43932 -81.31296 102 ft 27 kts 87°
2026-04-23 03:36 28.43958 -81.31069 115 ft 23 kts 99°
2026-04-23 03:37 28.43939 -81.30759 113 ft 1 kts 355°
2026-04-23 03:37 28.43953 -81.30718 105 ft 25 kts 109°
2026-04-23 03:37 28.43916 -81.30463 97 ft 38 kts 92°
2026-04-23 03:37 28.43905 -81.30176 100 ft 35 kts 92°
2026-04-23 03:38 28.43858 -81.29948 99 ft 17 kts 158°
2026-04-23 03:38 28.43740 -81.29947 99 ft 17 kts 179°
2026-04-23 03:38 28.43622 -81.29947 100 ft 17 kts 180°
2026-04-23 03:38 28.43526 -81.30006 100 ft 14 kts 221°
2026-04-23 03:39 28.43509 -81.30044 99 ft 0 kts 261°